Latest Weather Observations for The Monument

IDQ60801

Issued at 6:35 pm EST Tuesday 2 September 2014 (issued every 30 minutes, with the page automatically refreshed every 10 minutes)

About weather observations | Map of weather stations | Latest weather observations for QLD | Other Formats
Station Details ID: 037034 Name: THE MONUMENT AIRPORT Lat: -21.81 Lon: 139.93 Height: 288.4 m
Data from the previous 72 hours. | See also: Recent months at The Monument
Date/Time
EST
Temp
°C
App
Temp
°C
Dew
Point
Rel
Hum
%
Delta-T
°C
Wind Press
QNH
hPa
Press
MSL
hPa
Rain
since 9 am
mm
Dir
 
Spd
km/h
Gust
km/h
Spd
kts
Gust
kts
02/06:30pm 21.5 14.7 -1.7 21 10.2 S 24 32 13 17 1020.1 1018.9 0.0
02/06:00pm 22.6 15.1 -1.5 20 10.7 S 28 37 15 20 1019.6 1018.4 0.0
02/05:30pm 23.4 16.0 -0.8 20 11.0 S 28 37 15 20 1019.5 1018.3 0.0
02/05:00pm 23.9 16.7 0.9 22 10.8 S 28 37 15 20 1019.4 1018.2 0.0
02/04:30pm 24.8 17.1 2.3 23 10.9 S 32 44 17 24 1019.3 1018.1 0.0
02/04:00pm 25.1 18.4 3.7 25 10.7 S 28 39 15 21 1019.3 1018.1 0.0
02/03:30pm 24.7 17.6 3.4 25 10.6 S 30 50 16 27 1019.3 1018.1 0.0
02/03:23pm 25.4 18.4 4.0 25 10.8 S 30 50 16 27 1019.3 1018.1 0.0
02/03:00pm 25.3 18.7 4.4 26 10.6 S 28 41 15 22 1019.6 1018.4 0.0
02/02:30pm 25.2 18.6 4.3 26 10.6 S 28 43 15 23 1019.9 1018.7 0.0
02/02:00pm 25.1 18.1 4.3 26 10.5 S 30 46 16 25 1020.2 1019.0 0.0
02/01:52pm 24.9 18.3 4.1 26 10.5 S 28 46 15 25 1020.4 1019.1 0.0
02/01:30pm 24.7 18.2 4.5 27 10.2 SSE 28 39 15 21 1020.8 1019.5 0.0
02/01:00pm 23.8 16.5 4.7 29 9.6 S 32 43 17 23 1021.3 1020.0 0.0
02/12:30pm 23.7 16.2 4.6 29 9.6 S 33 46 18 25 1021.9 1020.7 0.0
02/12:00pm 23.5 16.2 4.5 29 9.5 S 32 44 17 24 1022.3 1021.1 0.0
02/11:30am 22.2 14.8 3.8 30 9.0 S 32 43 17 23 1022.7 1021.5 0.0
02/11:00am 21.8 15.2 4.4 32 8.6 S 28 43 15 23 1023.0 1021.8 0.0
02/10:30am 20.6 13.9 3.8 33 8.2 SSE 28 39 15 21 1023.3 1022.1 0.0
02/10:00am 20.2 13.5 3.9 34 7.9 SSE 28 37 15 20 1023.4 1022.2 0.0
02/09:30am 19.7 12.3 4.2 36 7.5 SSE 32 43 17 23 1023.1 1021.9 0.0
02/09:00am 18.4 11.0 4.2 39 6.8 SSE 32 44 17 24 1022.9 1021.7 0.0
02/08:30am 17.8 11.6 4.4 41 6.5 S 26 37 14 20 1022.5 1021.3 0.0
02/08:00am 17.0 11.5 4.0 42 6.1 S 22 30 12 16 1022.0 1020.8 0.0
02/07:30am 16.1 10.5 3.5 43 5.9 S 22 32 12 17 1021.4 1020.1 0.0
02/07:00am 15.5 10.4 3.0 43 5.7 S 19 26 10 14 1020.9 1019.6 0.0
02/06:30am 16.0 10.9 2.8 41 6.1 SSE 19 28 10 15 1020.5 1019.2 0.0
02/06:00am 16.3 10.9 2.3 39 6.4 SSE 20 32 11 17 1019.9 1018.7 0.0
02/05:30am 16.9 10.3 1.8 36 6.8 S 26 37 14 20 1019.5 1018.3 0.0
02/05:00am 17.0 10.7 1.4 35 7.0 S 24 37 13 20 1019.0 1017.8 0.0
02/04:30am 17.0 9.9 -1.6 28 7.9 S 26 35 14 19 1018.7 1017.4 0.0
02/04:00am 17.8 10.6 -5.4 20 9.1 S 24 32 13 17 1018.7 1017.4 0.0
02/03:30am 16.9 10.4 -6.2 20 8.9 SSW 20 28 11 15 1018.2 1016.9 0.0
02/03:00am 12.4 9.5 -8.1 23 7.1 CALM 0 0 0 0 1017.3 1016.0 0.0
02/02:30am 13.9 11.1 -6.9 23 7.6 CALM 0 0 0 0 1017.2 1015.9 0.0
02/02:00am 13.5 9.3 -7.2 23 7.4 N 7 7 4 4 1017.3 1016.0 0.0
02/01:30am 13.6 10.8 -7.1 23 7.5 CALM 0 0 0 0 1017.5 1016.2 0.0
02/01:00am 14.7 12.0 -6.2 23 7.8 CALM 0 0 0 0 1017.6 1016.3 0.0
02/12:30am 14.5 11.0 -5.8 24 7.6 N 4 7 2 4 1017.9 1016.6 0.0
02/12:00am 14.6 11.8 -7.4 21 8.0 N 0 0 0 0 1018.0 1016.7 0.0
 
Date/Time
EST
Temp
°C
App
Temp
°C
Dew
Point
Rel
Hum
%
Delta-T
°C
Wind Press
QNH
hPa
Press
MSL
hPa
Rain
since 9 am
mm
Dir
 
Spd
km/h
Gust
km/h
Spd
kts
Gust
kts
01/11:30pm 14.5 11.6 -7.5 21 8.0 CALM 0 0 0 0 1018.0 1016.7 0.0
01/11:00pm 16.0 13.3 -6.3 21 8.4 CALM 0 0 0 0 1017.9 1016.6 0.0
01/10:30pm 16.7 14.4 -2.4 27 7.9 CALM 0 0 0 0 1017.7 1016.4 0.0
01/10:00pm 17.2 14.2 -8.8 16 9.4 CALM 0 2 0 1 1017.5 1016.2 0.0
01/09:30pm 21.7 16.8 -6.9 14 11.4 SW 11 13 6 7 1017.3 1016.0 0.0
01/09:00pm 20.1 15.6 -6.5 16 10.5 WSW 9 13 5 7 1017.1 1015.8 0.0
01/08:30pm 20.8 16.7 -6.7 15 10.9 W 7 9 4 5 1016.6 1015.4 0.0
01/08:00pm 23.9 19.1 -6.2 13 12.4 WSW 11 11 6 6 1016.2 1015.0 0.0
01/07:30pm 25.1 20.4 -5.2 13 12.8 WSW 11 13 6 7 1015.8 1014.6 0.0
01/07:00pm 26.3 22.0 -5.3 12 13.5 WSW 9 11 5 6 1015.4 1014.1 0.0
01/06:30pm 28.5 23.8 -4.8 11 14.6 WSW 11 13 6 7 1015.1 1013.8 0.0
01/06:00pm 30.3 25.6 -4.7 10 15.6 W 11 17 6 9 1015.0 1013.7 0.0
01/05:30pm 30.7 25.3 -4.4 10 15.8 SW 15 20 8 11 1014.8 1013.5 0.0
01/05:00pm 31.0 26.4 -4.1 10 15.9 W 11 22 6 12 1014.4 1013.1 0.0
01/04:30pm 31.8 26.5 -3.5 10 16.3 SW 15 20 8 11 1014.3 1013.0 0.0
01/04:00pm 31.7 27.2 -3.6 10 16.3 NW 11 20 6 11 1014.5 1013.2 0.0
01/03:30pm 31.9 27.1 -2.2 11 16.1 WSW 13 28 7 15 1014.7 1013.4 0.0
01/03:00pm 31.6 27.2 -2.4 11 16.0 WSW 11 19 6 10 1015.0 1013.7 0.0
01/02:30pm 30.3 25.4 -3.4 11 15.4 WNW 13 20 7 11 1015.5 1014.2 0.0
01/02:00pm 29.7 24.4 -3.9 11 15.2 W 15 24 8 13 1015.8 1014.6 0.0
01/01:30pm 29.9 24.0 -2.6 12 15.0 W 19 28 10 15 1016.3 1015.1 0.0
01/01:00pm 29.2 23.6 -3.1 12 14.7 NW 17 24 9 13 1016.9 1015.6 0.0
01/12:30pm 29.2 23.6 -3.1 12 14.7 NW 17 26 9 14 1017.4 1016.1 0.0
01/12:00pm 28.0 22.8 -3.0 13 14.0 NW 15 24 8 13 1017.7 1016.4 0.0
01/11:30am 28.4 23.2 -2.6 13 14.2 NNE 15 24 8 13 1018.2 1016.9 0.0
01/11:00am 28.2 22.7 -1.8 14 13.9 NE 17 26 9 14 1018.6 1017.3 0.0
01/10:30am 27.7 23.3 -2.2 14 13.7 N 11 19 6 10 1018.9 1017.7 0.0
01/10:00am 25.6 22.9 -2.1 16 12.5 WNW 2 9 1 5 1019.0 1017.8 0.0
01/09:30am 24.0 21.3 -2.5 17 11.7 N 2 11 1 6 1018.8 1018.1 0.0
01/09:00am 22.5 20.1 -3.0 18 11.0 CALM 0 4 0 2 1018.8 1018.1 0.0
01/08:30am 18.6 16.2 -2.9 23 9.0 CALM 0 0 0 0 1018.6 1017.9 0.0
01/08:00am 15.0 12.5 -3.8 27 7.4 CALM 0 0 0 0 1018.4 1017.7 0.0
01/07:30am 11.2 8.6 -4.9 32 6.0 CALM 0 4 0 2 1018.2 1017.5 0.0
01/07:00am 9.0 6.3 -5.6 35 5.2 CALM 0 0 0 0 1018.0 1017.3 0.0
01/06:30am 9.8 6.2 -3.8 38 5.1 NNW 6 7 3 4 1017.5 1016.8 0.0
01/06:00am 9.8 5.9 -4.9 35 5.3 NW 7 7 4 4 1017.1 1016.4 0.0
01/05:30am 10.5 6.6 -4.7 34 5.6 NW 7 9 4 5 1016.8 1016.1 0.0
01/05:00am 10.6 6.7 -4.2 35 5.5 NW 7 9 4 5 1016.6 1016.0 0.0
01/04:30am 10.6 6.7 -5.0 33 5.7 NNW 7 9 4 5 1016.2 1015.6 0.0
01/04:00am 11.2 8.7 -3.7 35 5.7 CALM 0 0 0 0 1016.1 1015.5 0.0
01/03:30am 11.3 8.7 -5.2 31 6.1 CALM 0 0 0 0 1016.1 1015.5 0.0
01/03:00am 11.3 7.5 -5.6 30 6.1 SW 6 9 3 5 1016.2 1015.6 0.0
01/02:30am 13.2 9.5 -3.1 32 6.4 SW 7 11 4 6 1016.2 1015.6 0.0
01/02:00am 14.0 9.7 -4.7 27 7.2 WSW 9 13 5 7 1016.4 1015.8 0.0
01/01:30am 13.1 10.5 -4.5 29 6.7 CALM 0 0 0 0 1016.3 1015.7 0.0
01/01:00am 13.6 10.9 -2.8 32 6.5 ENE 2 6 1 3 1016.5 1015.9 0.0
01/12:30am 14.0 11.5 -4.2 28 7.1 CALM 0 0 0 0 1016.6 1016.0 0.0
01/12:00am 14.2 11.6 -5.0 26 7.3 CALM 0 0 0 0 1016.6 1016.0 0.0
 
Date/Time
EST
Temp
°C
App
Temp
°C
Dew
Point
Rel
Hum
%
Delta-T
°C
Wind Press
QNH
hPa
Press
MSL
hPa
Rain
since 9 am
mm
Dir
 
Spd
km/h
Gust
km/h
Spd
kts
Gust
kts
31/11:30pm 13.6 10.9 -5.5 26 7.2 CALM 0 0 0 0 1016.9 1016.2 0.0
31/11:00pm 15.1 12.5 -5.3 24 7.8 CALM 0 0 0 0 1016.9 1016.2 0.0
31/10:30pm 16.0 13.6 -3.0 27 7.7 CALM 0 0 0 0 1016.9 1016.2 0.0
31/10:00pm 16.1 13.6 -4.4 24 8.1 CALM 0 0 0 0 1017.0 1016.3 0.0
31/09:30pm 17.1 14.6 -4.2 23 8.5 CALM 0 0 0 0 1017.0 1016.3 0.0
31/09:00pm 18.4 14.8 -3.7 22 9.0 S 6 17 3 9 1016.8 1016.1 0.0
31/08:30pm 19.2 16.7 -3.6 21 9.4 CALM 0 0 0 0 1016.4 1015.8 0.0
31/08:00pm 20.4 17.9 -4.0 19 10.1 CALM 0 0 0 0 1016.1 1015.5 0.0
31/07:30pm 21.9 18.1 -3.5 18 10.8 E 7 9 4 5 1015.7 1015.0 0.0
31/07:00pm 23.8 21.4 -3.5 16 11.8 CALM 0 0 0 0 1015.4 1014.7 0.0
31/06:30pm 25.7 22.5 -3.8 14 12.9 SSE 4 7 2 4 1015.3 1014.6 0.0
31/06:00pm 27.3 23.5 -3.5 13 13.7 SSE 7 13 4 7 1015.1 1014.4 0.0
31/05:30pm 27.9 23.4 -3.0 13 14.0 SE 11 19 6 10 1015.0 1014.3 0.0
31/05:00pm 28.3 23.9 -2.7 13 14.1 ESE 11 20 6 11 1014.9 1014.2 0.0
31/04:30pm 28.5 24.5 -2.6 13 14.2 S 9 17 5 9 1015.0 1014.3 0.0
31/04:00pm 28.5 24.0 -3.6 12 14.4 S 11 20 6 11 1015.0 1014.3 0.0
31/03:30pm 28.6 23.4 -2.5 13 14.3 ESE 15 20 8 11 1015.1 1014.4 0.0
31/03:00pm 29.0 25.6 -2.2 13 14.4 NNE 6 13 3 7 1015.4 1014.7 0.0
31/02:30pm 28.6 24.2 -2.5 13 14.3 S 11 22 6 12 1015.7 1015.0 0.0
31/02:00pm 27.5 23.0 -3.3 13 13.8 E 11 17 6 9 1016.1 1015.5 0.0
31/01:30pm 27.5 23.1 -2.3 14 13.6 S 11 20 6 11 1016.6 1016.0 0.0
31/01:00pm 27.3 23.0 -1.6 15 13.3 SSE 11 22 6 12 1017.1 1016.4 0.0
31/12:30pm 27.1 22.8 -1.7 15 13.2 SSW 11 20 6 11 1017.5 1016.8 0.0
31/12:00pm 26.2 21.9 -1.6 16 12.7 SE 11 17 6 9 1017.9 1017.2 0.0
31/11:30am 25.9 21.3 -1.0 17 12.4 E 13 20 7 11 1018.3 1017.6 0.0
31/11:00am 25.9 21.8 -0.2 18 12.2 E 11 19 6 10 1018.9 1018.3 0.0
31/10:30am 25.0 20.5 -0.2 19 11.7 ENE 13 20 7 11 1019.2 1018.6 0.0
31/10:00am 23.0 18.8 -1.1 20 10.8 ESE 11 17 6 9 1019.4 1018.8 0.0
31/09:30am 21.5 17.2 -1.7 21 10.2 ESE 11 15 6 8 1019.4 1018.8 0.0
31/09:00am 20.1 15.4 -1.7 23 9.4 E 13 17 7 9 1019.2 1018.6 0.0
31/08:30am 18.1 13.0 -2.2 25 8.6 E 15 20 8 11 1019.1 1018.5 0.0
31/08:00am 16.0 12.5 -3.0 27 7.7 ESE 6 11 3 6 1019.1 1018.5 0.0
31/07:30am 11.8 9.3 -3.9 33 6.0 CALM 0 0 0 0 1019.0 1018.4 0.0
31/07:00am 11.2 8.4 -3.7 35 5.6 SSE 2 7 1 4 1018.7 1018.0 0.0
31/06:30am 12.0 8.3 -4.2 32 6.1 SSE 6 7 3 4 1018.4 1017.7 0.0
31/06:00am 12.6 8.5 -3.2 33 6.2 SE 9 11 5 6 1018.0 1017.3 0.0
31/05:30am 11.4 8.0 -2.4 38 5.4 SE 6 7 3 4 1017.6 1016.9 0.0
31/05:00am 12.6 8.9 -3.2 33 6.2 SE 7 11 4 6 1017.5 1016.8 0.0
31/04:30am 13.1 9.0 -3.2 32 6.4 SSE 9 11 5 6 1017.4 1016.7 0.0
31/04:00am 11.5 8.2 -4.6 32 6.0 SSE 4 9 2 5 1017.4 1016.7 0.0
31/03:30am 13.8 9.8 -2.6 32 6.6 SSE 9 13 5 7 1017.6 1016.9 0.0
31/03:00am 13.3 9.1 -3.9 30 6.6 S 9 11 5 6 1017.6 1016.9 0.0
31/02:30am 13.4 9.6 -3.8 30 6.7 S 7 9 4 5 1017.6 1016.9 0.0
31/02:00am 14.9 10.4 -3.4 28 7.3 S 11 13 6 7 1017.9 1017.2 0.0
31/01:30am 15.5 11.0 -2.9 28 7.5 S 11 13 6 7 1017.9 1017.2 0.0
31/01:00am 13.7 9.9 -4.0 29 6.9 S 7 9 4 5 1018.2 1017.5 0.0
31/12:30am 15.1 11.0 -2.8 29 7.2 S 9 11 5 6 1018.3 1017.6 0.0
31/12:00am 16.7 12.1 -1.4 29 7.6 SSE 13 13 7 7 1018.3 1017.6 0.0
 
Date/Time
EST
Temp
°C
App
Temp
°C
Dew
Point
Rel
Hum
%
Delta-T
°C
Wind Press
QNH
hPa
Press
MSL
hPa
Rain
since 9 am
mm
Dir
 
Spd
km/h
Gust
km/h
Spd
kts
Gust
kts
30/11:30pm 15.3 11.3 -2.6 29 7.3 SSE 9 11 5 6 1018.4 1017.7 0.0
30/11:00pm 15.6 11.6 -1.9 30 7.2 ESE 9 11 5 6 1018.6 1017.9 0.0
30/10:30pm 16.3 12.9 -1.7 29 7.5 S 6 7 3 4 1018.4 1017.7 0.0
30/10:00pm 18.2 14.5 -2.7 24 8.7 S 7 9 4 5 1018.3 1017.6 0.0
30/09:30pm 18.6 15.1 -1.3 26 8.6 SE 7 11 4 6 1018.3 1017.6 0.0
30/09:00pm 19.3 15.1 -1.2 25 8.9 ESE 11 13 6 7 1018.1 1017.4 0.0
30/08:30pm 19.3 15.4 -1.2 25 8.9 ESE 9 13 5 7 1017.9 1017.2 0.0
30/08:00pm 20.6 16.8 -0.7 24 9.5 SE 9 11 5 6 1017.5 1016.8 0.0
30/07:30pm 21.5 17.7 -0.5 23 9.9 ESE 9 11 5 6 1017.0 1016.3 0.0
30/07:00pm 22.9 19.1 -0.6 21 10.7 ESE 9 11 5 6 1016.5 1015.9 0.0

Other Formats:

Comma delimited format used in spreadsheet applications
http://www.bom.gov.au/fwo/IDQ60801/IDQ60801.94336.axf

JavaScript Object Notation format (JSON) in row-major order
http://www.bom.gov.au/fwo/IDQ60801/IDQ60801.94336.json